Regional Weather Roundup
Issued by NWS

Home | Current Version | Previous Version | Graphics & Text | Print | Product List | Glossary On
Versions: 1 2 3 4 5 6 7 8 9 10 11 12 13 14 15 16 17 18 19 20 21 22 23 24 25 26 27 28 29 30 31 32 33 34 35 36 37 38 39 40 41 42 43 44 45 46 47 48 49 50
000
ASUS43 KLOT 231158
RWRIL

ILLINOIS REGIONAL WEATHER ROUNDUP
NATIONAL WEATHER SERVICE CHICAGO/ROMEOVILLE IL
700 AM CDT WED JUL 23 2014

NOTE: "FAIR" INDICATES FEW OR NO CLOUDS BELOW 12,000 FEET WITH NO
SIGNIFICANT WEATHER AND/OR OBSTRUCTIONS TO VISIBILITY.

* THESE STATIONS ARE NOT UNDER NWS QUALITY CONTROL. THEY ALSO MAY NOT
  REPORT WEATHER SUCH AS PRECIPITATION OR FOG.

ILZ001-002-007-009-015-016-024-231300-
NORTHWEST ILLINOIS

CITY           SKY/WX    TMP DP  RH WIND       PRES   REMARKS
MOLINE         SUNNY     70  63  78 NE7       30.12R
6HR MIN TEMP:  69; 6HR MAX TEMP:  78;

$$

ILZ003-004-008-010-011-017-018-231300-
NORTH CENTRAL ILLINOIS

CITY           SKY/WX    TMP DP  RH WIND       PRES   REMARKS
ROCKFORD       NOT AVBL
$$

ILZ005-006-012>014-019>023-231300-
NORTHEAST ILLINOIS

CITY           SKY/WX    TMP DP  RH WIND       PRES   REMARKS
CHICAGO-OHARE  MOSUNNY   65  52  62 N17       30.11R
6HR MIN TEMP:  64; 6HR MAX TEMP:  74;

CHICAGO-MIDWAY MOSUNNY   66  59  78 N15       30.10R
6HR MIN TEMP:  66; 6HR MAX TEMP:  77;

AURORA         SUNNY     64  56  75 NE12      30.10S
6HR MIN TEMP:  63; 6HR MAX TEMP:  78;

WAUKEGAN       SUNNY     63  54  72 N16G22    30.11F
6HR MIN TEMP:  61; 6HR MAX TEMP:  66;

DUPAGE AIRPORT SUNNY     64  56  75 N17       30.10S
6HR MIN TEMP:  62; 6HR MAX TEMP:  75;

WHEELING       SUNNY     65  54  67 N12       30.12S
6HR MIN TEMP:  64; 6HR MAX TEMP:  73;

NORTHERLY ISL    N/A     63  57  81 N16         N/A
$$

LMZ740>746-231300-
SOUTHERN LAKE MICHIGAN

STATION/POSITION SKY/WX   TEMP    WIND        PRES    VSBY  WAVE
                          AIR SEA DIR/SP/G                  HT/PER
                          (F)     (DEG/KT/KT) (MB)    (MI)  (FT/S)
SOUTHERN BUOY              61 60  350/ 21/ 25 1018.6R         5/ 6
WAUKEGAN HARBOR            62      10/ 19/ 27 1020.3S
HARRISON CRIB              64     360/ 26/ 30   N/A
BURNHAM HARBOR             63     340/ 15/ 19   N/A
CALUMET HARBOR             64     340/ 14/ 21 1017.9R
MICHIGAN CITY              65     360/ 26/ 30   N/A
$$

ILZ025>027-034>036-040-047-049-050-058-095>099-231300-
WEST-CENTRAL ILLINOIS

CITY           SKY/WX    TMP DP  RH WIND       PRES   REMARKS
$$

ILZ028>032-037-038-041>044-048-051>054-059>061-231300-
CENTRAL ILLINOIS

CITY           SKY/WX    TMP DP  RH WIND       PRES   REMARKS
PEORIA         NOT AVBL
SPRINGFIELD    CLOUDY    76  72  87 N13       30.03R
6HR MIN TEMP:  76; 6HR MAX TEMP:  79;

TAYLORVILLE    NOT AVBL
$$

ILZ033-039-045-046-055>057-062-063-231300-
EAST-CENTRAL ILLINOIS

CITY           SKY/WX    TMP DP  RH WIND       PRES   REMARKS
CHAMPAIGN      PTSUNNY   70  66  87 NE13G23   30.04R
MATTOON        CLOUDY    75  70  84 CALM      30.02R
$$

ILZ079-100>102-231300-
SOUTHWEST ILLINOIS

CITY           SKY/WX    TMP DP  RH WIND       PRES   REMARKS
ALTON          MOSUNNY   77  77 100 N6        30.00R FOG
CAHOKIA*       MOSUNNY   78  72  81 SW6       29.99R HX  80
$$

ILZ064>066-069>071-074>076-080>082-084>086-088>090-092>094-231300-
SOUTH-CENTRAL ILLINOIS

CITY           SKY/WX    TMP DP  RH WIND       PRES   REMARKS
CARBONDALE     PTSUNNY   77  67  71 SW6       30.02R
6HR MIN TEMP:  70; 6HR MAX TEMP:  77; 6HR PCP: TRACE;

MARION         PTSUNNY   77  70  78 SW6       30.03R
$$

ILZ067-068-072-073-078-083-087-091-231300-
SOUTHEAST ILLINOIS

CITY           SKY/WX    TMP DP  RH WIND       PRES   REMARKS
$$

ABBREVIATIONS USED IN REMARKS
   TC - TEMPERATURE IN CELSIUS
  WCI - WIND CHILL INDEX
   HX - HEAT INDEX
  VSB - VISIBILITY
$$




USA.gov is the U.S. government's official web portal to all federal, state and local government web resources and services.